Location: Sabalos
(43.2860°N, 0.1414°E)
Time: 10:50:14
(UTC+00:00)

Cosmos 2263 Rocket - Pass Details

Date: 05 July 2020
Orbit: 825 x 847 km, 71.0° (Epoch: 05 August)

Event Time Altitude Azimuth Distance (km) Brightness Sun altitude
Rises 20:25:01 0° 328° (NNW) 3,372 7.0 -7.1°
Reaches altitude 10° 20:27:35 10° 321° (NW) 2,434 6.3 -7.4°
Maximum altitude 20:32:44 40° 254° (WSW) 1,206 3.4 -8.1°
Drops below altitude 10° 20:37:51 10° 186° (S) 2,420 4.2 -8.8°
Sets 20:40:24 0° 179° (S) 3,351 4.9 -9.1°
Enters shadow 20:40:26 - 179° (S) 3,365 4.9 -9.1°
